STARLINK-1805 (46705 NORAD) Tracking and Keplerian Element Data

This shows tracking and keplerian element data for the satellite.

Feedback or suggestion? Click here.




ElementValue
Catalog46705
NameSTARLINK-1805
Epoch Orbit180
Epoch Day336.91667824
Epoch Year2020
RAAN253.2511
Inclination53.056
Eccentricity0.0001239
Argument of Perigee67.7961
Mean Anonmoly287.696
Mean Motion15.24380492
Decay Rate-0.01061351
L11 46705U 20073AM 20336.91667824 -.01061351 00000-0 -46673-1 0 9997
L22 46705 53.0560 253.2511 0001239 67.7961 287.6960 15.24380492 1808

Live tracking and technical data element details for STARLINK-1805 (NORAD 46705). STARLINK-1805 can be tracked NOW for your location showing map with azimuth and elevation plus other details from your city location.

Track the satellite on the map from your city or location and see movement details for azimuth, elevation, latitude, longitude, range, height, and movement on the map or in text.







IsCatalogInMostPopularTable: catalog: 46705, numindb: 10
Update: records affected: 1



GetName: 46705 STARLINK-1805

Hit Count: updated at: Thu, 03 Dec 2020 07:29:17 GMT